Wetterdaten Neuhaus/Waldnaab

^

Wetter Neuhaus/WN - aktuelle & historische Daten
 
tägl. Zusammenfassung für den 25. Juni 2018
« minus 1 Tag
plus 1 Tag »
tägl. wöchentl. monatl. jährl.
  Aktuell: Höchstwert: Tiefstwert: Durchschnitt:
Temperatur: 16.8 °C 16.9 °C 10.5 °C 12.2 °C
Taupunkt: 13.7 °C 13.7 °C 10.2 °C 11.2 °C
Luftfeuchte: 82 % 99 % 72 % 94 %
Windgeschwindigkeit: 0.0 km/h 0.0 km/h 0.0 km/h 0 km/h
Windböe: 0.0 km/h 0.0 km/h - -
Wind:ruhig - - Nord
Druck: 1022.6 hPa 1022.6 hPa 1020.2 hPa -
Niederschlag: 0.0 mm      
Historical Graphs
 
 














tabellarische Daten für den 25 . Juni 2018
Zeit Temperatur Taupunkt Luftdruck Wind Windgeschwindigkeit Windböe Luftfeuchte Regen (pro h) Solar Bedingungen
00:04 11.5 °C 10.6 °C 1020.5 hPa Ruhig     94 % 0.0 mm 0.00 W/m2
00:09 11.5 °C 10.7 °C 1020.5 hPa Ruhig     95 % 0.0 mm 0.00 W/m2
00:14 11.4 °C 10.6 °C 1020.5 hPa Ruhig     95 % 0.0 mm 0.00 W/m2
00:19 11.4 °C 10.6 °C 1020.5 hPa Ruhig     95 % 0.0 mm 0.00 W/m2
00:24 11.4 °C 10.6 °C 1020.5 hPa Ruhig     95 % 0.0 mm 0.00 W/m2
00:29 11.3 °C 10.7 °C 1020.5 hPa Ruhig     96 % 0.0 mm 0.00 W/m2
00:34 11.3 °C 10.9 °C 1020.5 hPa Ruhig     97 % 0.0 mm 0.00 W/m2
00:39 11.2 °C 10.9 °C 1020.5 hPa Ruhig     98 % 0.0 mm 0.00 W/m2
00:44 11.2 °C 10.8 °C 1020.5 hPa Ruhig     97 % 0.0 mm 0.00 W/m2
00:49 11.1 °C 10.8 °C 1020.5 hPa Ruhig     98 % 0.0 mm 0.00 W/m2
00:54 11.1 °C 10.8 °C 1020.5 hPa Ruhig     98 % 0.0 mm 0.00 W/m2
00:59 11.1 °C 10.8 °C 1020.5 hPa Ruhig     98 % 0.0 mm 0.00 W/m2
01:04 11.0 °C 10.9 °C 1020.5 hPa Ruhig     99 % 0.0 mm 0.00 W/m2
01:09 10.9 °C 10.6 °C 1020.5 hPa Ruhig     98 % 0.0 mm 0.00 W/m2
01:14 10.9 °C 10.6 °C 1020.9 hPa Ruhig     98 % 0.0 mm 0.00 W/m2
01:19 10.8 °C 10.5 °C 1020.9 hPa Ruhig     98 % 0.0 mm 0.00 W/m2
01:24 10.8 °C 10.5 °C 1020.9 hPa Ruhig     98 % 0.0 mm 0.00 W/m2
01:29 10.7 °C 10.4 °C 1020.9 hPa Ruhig     98 % 0.0 mm 0.00 W/m2
01:34 10.7 °C 10.4 °C 1020.5 hPa Ruhig     98 % 0.0 mm 0.00 W/m2
01:39 10.6 °C 10.3 °C 1020.5 hPa Ruhig     98 % 0.0 mm 0.00 W/m2
01:44 10.6 °C 10.5 °C 1020.5 hPa Ruhig     99 % 0.0 mm 0.00 W/m2
01:49 10.6 °C 10.5 °C 1020.5 hPa Ruhig     99 % 0.0 mm 0.00 W/m2
01:54 10.5 °C 10.4 °C 1020.5 hPa Ruhig     99 % 0.0 mm 0.00 W/m2
01:59 10.5 °C 10.4 °C 1020.5 hPa Ruhig     99 % 0.0 mm 0.00 W/m2
02:04 10.5 °C 10.4 °C 1020.5 hPa Ruhig     99 % 0.0 mm 0.00 W/m2
02:09 10.5 °C 10.2 °C 1020.5 hPa Ruhig     98 % 0.0 mm 0.00 W/m2
02:14 10.5 °C 10.2 °C 1020.5 hPa Ruhig     98 % 0.0 mm 0.00 W/m2
02:19 10.6 °C 10.5 °C 1020.5 hPa Ruhig     99 % 0.0 mm 0.00 W/m2
02:24 10.6 °C 10.5 °C 1020.5 hPa Ruhig     99 % 0.0 mm 0.00 W/m2
02:29 10.6 °C 10.5 °C 1020.5 hPa Ruhig     99 % 0.0 mm 0.00 W/m2
02:34 10.6 °C 10.5 °C 1020.5 hPa Ruhig     99 % 0.0 mm 0.00 W/m2
02:39 10.6 °C 10.5 °C 1020.5 hPa Ruhig     99 % 0.0 mm 0.00 W/m2
02:44 10.7 °C 10.6 °C 1020.2 hPa Ruhig     99 % 0.0 mm 0.00 W/m2
02:49 10.7 °C 10.6 °C 1020.5 hPa Ruhig     99 % 0.0 mm 0.00 W/m2
02:54 10.7 °C 10.6 °C 1020.5 hPa Ruhig     99 % 0.0 mm 0.00 W/m2
02:59 10.7 °C 10.6 °C 1020.5 hPa Ruhig     99 % 0.0 mm 0.00 W/m2
03:04 10.7 °C 10.6 °C 1020.5 hPa Ruhig     99 % 0.0 mm 0.00 W/m2
03:09 10.7 °C 10.6 °C 1020.5 hPa Ruhig     99 % 0.0 mm 0.00 W/m2
03:14 10.7 °C 10.6 °C 1020.5 hPa Ruhig     99 % 0.0 mm 0.00 W/m2
03:19 10.7 °C 10.6 °C 1020.2 hPa Ruhig     99 % 0.0 mm 0.00 W/m2
03:24 10.7 °C 10.6 °C 1020.5 hPa Ruhig     99 % 0.0 mm 0.00 W/m2
03:29 10.7 °C 10.6 °C 1020.5 hPa Ruhig     99 % 0.0 mm 0.00 W/m2
03:34 10.7 °C 10.6 °C 1020.5 hPa Ruhig     99 % 0.0 mm 0.00 W/m2
03:39 10.7 °C 10.6 °C 1020.5 hPa Ruhig     99 % 0.0 mm 0.00 W/m2
03:44 10.7 °C 10.6 °C 1020.5 hPa Ruhig     99 % 0.0 mm 0.00 W/m2
03:49 10.7 °C 10.6 °C 1020.5 hPa Ruhig     99 % 0.0 mm 0.00 W/m2
03:54 10.8 °C 10.7 °C 1020.2 hPa Ruhig     99 % 0.0 mm 0.00 W/m2
03:59 10.8 °C 10.7 °C 1020.5 hPa Ruhig     99 % 0.0 mm 0.00 W/m2
04:04 10.8 °C 10.7 °C 1020.5 hPa Ruhig     99 % 0.0 mm 0.00 W/m2
04:09 10.8 °C 10.7 °C 1020.2 hPa Ruhig     99 % 0.0 mm 0.00 W/m2
04:14 10.8 °C 10.7 °C 1020.5 hPa Ruhig     99 % 0.0 mm 0.00 W/m2
04:19 10.8 °C 10.7 °C 1020.5 hPa Ruhig     99 % 0.0 mm 0.00 W/m2
04:24 10.8 °C 10.7 °C 1020.5 hPa Ruhig     99 % 0.0 mm 0.00 W/m2
04:29 10.8 °C 10.7 °C 1020.2 hPa Ruhig     99 % 0.0 mm 0.00 W/m2
04:34 10.8 °C 10.7 °C 1020.5 hPa Ruhig     99 % 0.0 mm 0.00 W/m2
04:39 10.8 °C 10.7 °C 1020.5 hPa Ruhig     99 % 0.0 mm 0.00 W/m2
04:44 10.8 °C 10.7 °C 1020.5 hPa Ruhig     99 % 0.0 mm 0.00 W/m2
04:49 10.8 °C 10.7 °C 1020.5 hPa Ruhig     99 % 0.0 mm 0.00 W/m2
04:54 10.9 °C 10.8 °C 1020.9 hPa Ruhig     99 % 0.0 mm 0.00 W/m2
04:59 10.9 °C 10.8 °C 1020.5 hPa Ruhig     99 % 0.0 mm 0.00 W/m2
05:04 10.9 °C 10.8 °C 1020.5 hPa Ruhig     99 % 0.0 mm 0.00 W/m2
05:09 10.9 °C 10.8 °C 1020.5 hPa Ruhig     99 % 0.0 mm 0.00 W/m2
05:14 10.9 °C 10.8 °C 1020.9 hPa Ruhig     99 % 0.0 mm 0.00 W/m2
05:19 10.9 °C 10.8 °C 1020.9 hPa Ruhig     99 % 0.0 mm 0.04 W/m2
05:24 10.9 °C 10.8 °C 1020.9 hPa Ruhig     99 % 0.0 mm 1.24 W/m2
05:29 10.9 °C 10.6 °C 1020.9 hPa Ruhig     98 % 0.0 mm 3.50 W/m2
05:34 10.9 °C 10.6 °C 1020.9 hPa Ruhig     98 % 0.0 mm 4.74 W/m2
05:39 11.0 °C 10.7 °C 1020.9 hPa Ruhig     98 % 0.0 mm 5.87 W/m2
05:44 11.0 °C 10.7 °C 1020.9 hPa Ruhig     98 % 0.0 mm 5.55 W/m2
05:49 11.0 °C 10.7 °C 1021.2 hPa Ruhig     98 % 0.0 mm 7.59 W/m2
05:54 11.0 °C 10.9 °C 1020.9 hPa Ruhig     99 % 0.0 mm 9.22 W/m2
05:59 11.1 °C 11.0 °C 1021.2 hPa Ruhig     99 % 0.0 mm 10.70 W/m2
06:04 11.1 °C 11.0 °C 1020.9 hPa Ruhig     99 % 0.0 mm 13.53 W/m2
06:09 11.2 °C 11.1 °C 1020.9 hPa Ruhig     99 % 0.0 mm 17.73 W/m2
06:14 11.2 °C 11.1 °C 1020.9 hPa Ruhig     99 % 0.0 mm 18.16 W/m2
06:19 11.3 °C 11.2 °C 1020.9 hPa Ruhig     99 % 0.0 mm 19.69 W/m2
06:24 11.3 °C 11.2 °C 1021.2 hPa Ruhig     99 % 0.0 mm 21.07 W/m2
06:29 11.4 °C 11.1 °C 1021.2 hPa Ruhig     98 % 0.0 mm 29.56 W/m2
06:34 11.4 °C 11.1 °C 1020.9 hPa Ruhig     98 % 0.0 mm 41.53 W/m2
06:39 11.5 °C 11.2 °C 1021.2 hPa Ruhig     98 % 0.0 mm 64.40 W/m2
06:44 11.6 °C 11.0 °C 1021.2 hPa Ruhig     96 % 0.0 mm 69.84 W/m2
06:49 11.7 °C 11.1 °C 1021.2 hPa Ruhig     96 % 0.0 mm 66.36 W/m2
06:54 11.9 °C 11.0 °C 1021.2 hPa Ruhig     94 % 0.0 mm 75.77 W/m2
06:59 12.0 °C 11.1 °C 1021.2 hPa Ruhig     94 % 0.0 mm 70.58 W/m2
07:04 12.1 °C 11.0 °C 1021.2 hPa Ruhig     93 % 0.0 mm 74.99 W/m2
07:09 12.2 °C 11.0 °C 1021.2 hPa Ruhig     92 % 0.0 mm 87.86 W/m2
07:14 12.4 °C 11.3 °C 1021.2 hPa Ruhig     93 % 0.0 mm 90.05 W/m2
07:19 12.5 °C 11.4 °C 1021.2 hPa Ruhig     93 % 0.0 mm 89.46 W/m2
07:24 12.6 °C 11.4 °C 1021.6 hPa Ruhig     92 % 0.0 mm 92.94 W/m2
07:29 12.7 °C 11.4 °C 1021.6 hPa Ruhig     92 % 0.0 mm 96.82 W/m2
07:34 12.8 °C 11.5 °C 1021.2 hPa Ruhig     92 % 0.0 mm 95.71 W/m2
07:39 12.9 °C 11.5 °C 1021.6 hPa Ruhig     91 % 0.0 mm 85.73 W/m2
07:44 12.9 °C 11.5 °C 1021.2 hPa Ruhig     91 % 0.0 mm 83.80 W/m2
07:49 13.0 °C 11.7 °C 1021.6 hPa Ruhig     92 % 0.0 mm 91.83 W/m2
07:54 13.1 °C 12.0 °C 1021.2 hPa Ruhig     93 % 0.0 mm 92.33 W/m2
07:59 13.0 °C 11.9 °C 1021.6 hPa Ruhig     93 % 0.0 mm 75.45 W/m2
08:04 13.0 °C 12.1 °C 1021.6 hPa Ruhig     94 % 0.0 mm 82.86 W/m2
08:09 13.0 °C 11.9 °C 1021.6 hPa Ruhig     93 % 0.0 mm 105.20 W/m2
08:14 12.9 °C 11.6 °C 1021.6 hPa Ruhig     92 % 0.0 mm 119.08 W/m2
08:19 12.9 °C 11.6 °C 1021.9 hPa Ruhig     92 % 0.0 mm 138.52 W/m2
08:24 12.9 °C 11.5 °C 1021.9 hPa Ruhig     91 % 0.0 mm 164.46 W/m2
08:29 13.0 °C 11.6 °C 1021.6 hPa Ruhig     91 % 0.0 mm 175.93 W/m2
08:34 13.1 °C 11.7 °C 1021.9 hPa Ruhig     91 % 0.0 mm 170.18 W/m2
08:39 13.3 °C 11.7 °C 1021.9 hPa Ruhig     90 % 0.0 mm 157.19 W/m2
08:44 13.5 °C 11.6 °C 1021.9 hPa Ruhig     88 % 0.0 mm 151.23 W/m2
08:49 13.7 °C 11.9 °C 1022.2 hPa Ruhig     89 % 0.0 mm 188.37 W/m2
08:54 14.0 °C 12.1 °C 1021.9 hPa Ruhig     88 % 0.0 mm 185.60 W/m2
08:59 14.2 °C 12.4 °C 1021.9 hPa Ruhig     89 % 0.0 mm 114.23 W/m2
09:04 14.2 °C 12.4 °C 1022.2 hPa Ruhig     89 % 0.0 mm 87.16 W/m2
09:09 14.1 °C 12.8 °C 1022.2 hPa Ruhig     92 % 0.0 mm 117.56 W/m2
09:14 14.0 °C 12.7 °C 1022.2 hPa Ruhig     92 % 0.0 mm 164.95 W/m2
09:19 14.0 °C 12.7 °C 1022.2 hPa Ruhig     92 % 0.0 mm 200.70 W/m2
09:24 14.0 °C 11.9 °C 1022.2 hPa Ruhig     87 % 0.0 mm 229.14 W/m2
09:29 14.0 °C 12.1 °C 1022.2 hPa Ruhig     88 % 0.0 mm 256.74 W/m2
09:34 14.3 °C 11.5 °C 1022.2 hPa Ruhig     83 % 0.0 mm 286.29 W/m2
09:39 14.6 °C 12.3 °C 1021.9 hPa Ruhig     86 % 0.0 mm 272.95 W/m2
09:44 15.0 °C 12.2 °C 1021.9 hPa Ruhig     83 % 0.0 mm 257.94 W/m2
09:49 15.2 °C 12.5 °C 1022.2 hPa Ruhig     84 % 0.0 mm 230.51 W/m2
09:54 15.4 °C 12.0 °C 1021.9 hPa Ruhig     80 % 0.0 mm 232.65 W/m2
09:59 15.6 °C 12.2 °C 1021.9 hPa Ruhig     80 % 0.0 mm 240.76 W/m2
10:04 15.7 °C 12.7 °C 1021.9 hPa Ruhig     82 % 0.0 mm 195.79 W/m2
10:09 15.8 °C 12.8 °C 1021.9 hPa Ruhig     82 % 0.0 mm 172.87 W/m2
10:14 15.8 °C 12.6 °C 1021.9 hPa Ruhig     81 % 0.0 mm 165.98 W/m2
10:19 15.8 °C 12.8 °C 1022.2 hPa Ruhig     82 % 0.0 mm 183.50 W/m2
10:24 15.8 °C 12.8 °C 1021.9 hPa Ruhig     82 % 0.0 mm 208.44 W/m2
10:29 15.8 °C 12.6 °C 1022.2 hPa Ruhig     81 % 0.0 mm 204.93 W/m2
10:34 15.7 °C 12.1 °C 1021.9 hPa Ruhig     79 % 0.0 mm 194.19 W/m2
10:39 15.7 °C 12.5 °C 1022.2 hPa Ruhig     81 % 0.0 mm 190.51 W/m2
10:44 15.7 °C 12.3 °C 1022.2 hPa Ruhig     80 % 0.0 mm 202.42 W/m2
10:49 15.9 °C 12.1 °C 1022.2 hPa Ruhig     78 % 0.0 mm 236.32 W/m2
10:54 16.1 °C 11.7 °C 1022.6 hPa Ruhig     75 % 0.0 mm 683.07 W/m2
10:59 16.5 °C 11.5 °C 1022.2 hPa Ruhig     72 % 0.0 mm 559.51 W/m2
11:04 16.8 °C 12.2 °C 1022.2 hPa Ruhig     74 % 0.0 mm 97.17 W/m2
11:09 16.9 °C 13.3 °C 1022.2 hPa Ruhig     79 % 0.0 mm 63.02 W/m2
11:14 16.9 °C 13.6 °C 1022.2 hPa Ruhig     81 % 0.0 mm 71.68 W/m2
11:19 16.8 °C 13.7 °C 1022.6 hPa Ruhig     82 % 0.0 mm 114.02 W/m2
Neuhaus/WN - Oberpfalz
Compliments of Weather Underground - 768 kb